Tracking 28125 objects as of 4-Oct-2023
HD Live streaming from Space Station
objects crossing your sky now

STARLINK-5740

Track STARLINK-5740 now!
10-day predictions
STARLINK-5740 is classified as:


NORAD ID: 55595
Int'l Code: 2023-020AC
Perigee: 565.3 km
Apogee: 567.1 km
Inclination: 43.0 °
Period: 95.8 minutes
Semi major axis: 6937 km
RCS: Unknown
Launch date: February 12, 2023
Source: United States (US)
Launch site: AIR FORCE EASTERN TEST RANGE (AFETR)
Your satellite tracking list
Your tracking list is empty




NASA's NSSDC Master Catalog

Two Line Element Set (TLE):
1 55595U 23020AC  23276.74985563 -.00001533  00000-0 -98479-4 0  9998
2 55595  43.0015 149.1509 0001307 262.3824  97.6870 15.02529576 35356
Source of the keplerian elements: AFSPC